Location: Three Oaks Observatory
(31.1535°N, 83.5955°W)
Time: 06:17:37
(UTC-05:00)

ISS - Visible Passes

Search period start: 19 December 2018 00:00
Search period end: 29 December 2018 00:00
Orbit: 401 x 408 km, 51.6° (Epoch: 20 December)

Date Brightness Start Highest point End Pass type
(mag) Time Alt. Az. Time Alt. Az. Time Alt. Az.
21 Dec -0.6 06:27:50 10° SSE 06:29:57 16° SE 06:32:03 10° E visible
23 Dec -2.8 06:18:36 10° SSW 06:21:47 48° SE 06:24:57 10° NE visible
24 Dec -1.3 05:28:30 18° SSE 05:29:39 21° SE 05:32:13 10° ENE visible
25 Dec -3.7 06:13:00 41° W 06:13:41 50° NW 06:16:54 10° NE visible
26 Dec -1.0 05:24:06 15° NE 05:24:06 15° NE 05:24:42 10° NE visible
26 Dec -1.6 06:57:03 10° NW 06:58:14 11° NNW 06:59:24 10° N visible
27 Dec -1.5 06:07:30 14° N 06:07:30 14° N 06:08:14 10° NNE visible
